This demonstration page uses our WeatherBlox Daily Observations layout. Learn more.

Left ArrowRight Arrow

Hourly Observations for July 14, 2015

Temp ( °F °C ) Dew Point ( °F °C ) Humidity (%) Winds ( mph kmh ) Pressure ( in mb ) Visibility ( mi km ) Precip ( " mm )
12:52 am 00:52 Clear 81 27.2 73 22.8 77 77 SW 6 9 29.75 1008 10 16 0.00 0.00
1:52 am 01:52 Clear 80 26.7 73 22.8 79 79 SW 8 13 29.74 1007 10 16 0.00 0.00
2:52 am 02:52 Clear 80 26.7 73 22.8 79 79 WSW 8 13 29.76 1008 10 16 0.00 0.00
3:52 am 03:52 Clear 81 27.2 73 22.8 77 77 WSW 8 13 29.75 1007 10 16 0.00 0.00
4:52 am 04:52 Clear 81 27.2 72 22.2 74 74 WSW 10 17 29.75 1008 10 16 0.00 0.00
5:52 am 05:52 Mostly Clear 80 26.7 72 22.2 76 76 WSW 7 11 29.76 1008 10 16 0.00 0.00
6:52 am 06:52 Mostly Sunny 80 26.7 72 22.2 76 76 WSW 7 11 29.78 1008 10 16 0.00 0.00
7:52 am 07:52 Sunny 81 27.2 73 22.8 77 77 WSW 6 9 29.78 1009 10 16 0.00 0.00
8:52 am 08:52 Sunny 83 28.3 73 22.8 72 72 W 12 19 29.80 1009 10 16 0.00 0.00
9:52 am 09:52 Sunny 85 29.4 73 22.8 68 68 W 8 13 29.80 1009 10 16 0.00 0.00
10:52 am 10:52 Mostly Cloudy 85 29.4 74 23.3 70 70 W 16 26 29.83 1010 10 16 0.00 0.00
11:13 am 11:13 Cloudy with Thunderstorms 83 28.3 74 23.3 74 74 WNW 15 24 29.85 1011 10 16 0.00 0.00
11:24 am 11:24 Windy with Storms Likely 73 23 70 21 89 89 NNW 28 44 29.88 1012 8 13 0.00 0.00
11:35 am 11:35 Cloudy with Thunderstorms 74 23.3 70 21.1 88 88 NNW 16 26 29.85 1011 10 16 0.00 0.03
11:52 am 11:52 Cloudy with Thunderstorms 74 23.3 69 20.6 85 85 N 9 15 29.89 1012 10 16 0.00 0.03
12:10 pm 12:10 Cloudy with Nearby Thunderstorms 74 23.3 68 20 82 82 NE 9 15 29.85 1011 10 16 0.00 0.03
12:29 pm 12:29 Mostly Cloudy with Thunderstorms 73 22.8 68 20 84 84 NW 5 7 29.85 1011 10 16 0.01 0.25
12:43 pm 12:43 Partly Cloudy with Light Rain 73 22.8 69 20.6 87 87 SE 5 7 29.85 1011 10 16 0.01 0.25
12:52 pm 12:52 Partly Cloudy with Light Rain 73 22.8 70 21.1 90 90 SE 9 15 29.84 1011 10 16 0.02 0.51
1:08 pm 13:08 Partly Cloudy with Nearby Thunderstorms 73 23 70 21 89 89 SE 9 15 29.80 1009 10 16 0.00 0.00
1:23 pm 13:23 Mostly Cloudy with Light Rain 73 22.8 70 21.1 90 90 E 9 15 29.80 1009 10 16 0.00 0.03
1:52 pm 13:52 Partly Cloudy with Light Rain 75 23.9 68 20 79 79 SSW 13 20 29.78 1009 10 16 0.00 0.03
2:52 pm 14:52 Sunny 79 26.1 70 21.1 74 74 S 9 15 29.79 1009 10 16 0.00 0.03
3:52 pm 15:52 Partly Cloudy 80 26.7 70 21.1 71 71 SSW 10 17 29.78 1008 10 16 0.00 0.00
4:52 pm 16:52 Mostly Cloudy 83 28.3 71 21.7 67 67 WSW 10 17 29.80 1009 10 16 0.00 0.00
5:52 pm 17:52 Mostly Sunny 85 29.4 72 22.2 65 65 SW 9 15 29.79 1009 10 16 0.00 0.00
6:52 pm 18:52 Mostly Sunny 84 28.9 72 22.2 67 67 SW 8 13 29.78 1009 10 16 0.00 0.00
7:52 pm 19:52 Sunny 84 28.9 74 23.3 72 72 NNE 5 7 29.80 1009 10 16 0.00 0.00
8:52 pm 20:52 Clear 81 27.2 73 22.8 77 77 NE 5 7 29.81 1010 10 16 0.00 0.00
9:52 pm 21:52 Clear 78 25.6 73 22.8 85 85 Calm 29.83 1010 10 16 0.00 0.00
10:52 pm 22:52 Clear 77 25 72 22.2 85 85 ESE 3 6 29.84 1010 10 16 0.00 0.00
11:52 pm 23:52 Clear 75 23.9 72 22.2 90 90 Calm 29.85 1011 10 16 0.00 0.00

Powered by AerisWeather